Retour au catalogue

FENGYUN 1C DEB

ActifSSO
NORAD 37477·DEBRIS·🇨🇳 China

Lancé May 10, 1999 depuis Taiyuan Satellite Launch Center

Loading…

Prochains Passages (prochaines 24 heures)

TLE

FraisSource: Space-Track

Époque: Sep 14, 2026, 05:27 UTC

1 37477U 99025EJX 26257.22740896  .00001090  00000-0  52481-3 0  9996
2 37477  98.6089 259.4218 0038367  31.8179 328.5305 14.20407419858242

Suivez FENGYUN 1C DEB en temps réel avec AllMySat

Download on the App Store